Temperature
19 20 20 19 19 19 19 19 19 19 19 19 19 19 19 19 19 19 19 19 19 19 19 19 19 19 18 18 18 19 19 19 18 18 18 18 18 18 18 18 18 18 18
20 20 20 19 19 19 19 19 19 19 19 19 19 19 19 19 19 19 19 19 19 19 19 19 19 19 19 19 18 18 18 18 19 19 18 18 18 18 18 17 17 17 17
20 20 20 19 19 19 19 19 19 19 19 19 19 19 19 19 19 19 19 19 19 19 19 19 19 18 18 18 18 18 18 18 18 18 18 18 18 18 18 18 17 17 17
20 19 19 19 19 19 19 19 19 19 19 19 19 19 19 19 19 19 19 19 19 19 19 19 19 19 18 18 18 18 18 18 18 18 18 18 18 18 18 18 18 17 17
19 20 20 19 19 19 19 19 19 19 19 19 19 19 19 19 19 19 19 19 19 19 19 19 19 19 18 18 18 18 18 18 18 18 18 18 18 18 18 18 17 17 17
20 20 20 19 19 19 19 19 19 19 19 19 19 19 19 19 19 19 19 19 19 19 19 19 19 19 19 19 18 19 18 18 18 18 18 18 18 18 18 18 17 17 17
20 20 20 19 19 19 19 19 19 19 19 19 19 19 19 19 19 19 19 19 19 19 19 19 19 19 19 19 19 19 18 18 18 18 18 18 18 18 18 18 18 17 17
20 19 20 19 19 19 19 19 19 19 19 19 19 19 19 19 19 19 19 19 19 19 19 19 19 19 19 19 19 18 18 18 18 18 18 18 18 18 18 18 18 17 17
20 20 19 19 19 19 19 19 19 19 19 19 19 19 19 19 19 19 19 19 19 19 19 19 19 19 19 19 19 19 18 18 18 18 18 18 18 18 18 18 18 17 17
20 20 20 19 19 19 19 19 19 19 19 19 19 19 19 19 19 19 19 19 19 19 19 19 19 19 19 19 19 19 18 18 18 18 18 18 18 18 18 18 18 17 17
21 20 20 20 19 19 19 19 19 19 19 19 19 19 19 19 19 19 19 19 19 19 19 19 19 19 19 19 19 19 18 18 18 18 18 18 18 18 18 18 18 17 17
21 21 20 20 20 19 19 19 19 19 19 19 19 19 19 19 19 19 19 19 19 19 19 19 19 19 19 19 19 19 19 18 18 18 18 18 18 18 18 18 17 17 17
21 21 20 20 20 20 19 19 19 19 19 19 19 19 19 19 19 19 19 19 19 19 19 19 19 19 19 19 19 19 19 19 18 18 18 18 18 18 18 18 17 17 17
21 21 20 20 20 20 20 19 19 19 19 19 19 19 19 19 19 19 19 19 19 19 19 19 19 19 19 19 19 19 19 18 18 18 18 18 18 18 18 18 17 17 17
21 21 20 20 20 19 20 20 20 19 19 19 19 19 19 19 19 19 19 19 19 19 19 19 19 19 19 19 19 19 18 18 18 18 18 18 18 18 18 17 17 17 17
21 20 20 20 20 19 20 20 20 20 19 19 19 19 19 19 19 19 19 19 19 19 19 19 19 19 19 19 19 19 18 18 18 18 18 18 18 18 18 17 17 17 17
21 20 20 20 20 19 19 20 20 20 19 19 19 19 19 19 19 19 19 19 19 19 19 19 19 19 19 19 19 19 18 18 18 18 18 18 17 17 17 17 17 17 17
21 20 20 20 20 19 19 19 20 20 19 19 19 19 19 19 19 19 19 19 19 19 19 19 19 19 19 19 19 19 19 18 18 18 18 18 17 17 17 17 17 17 17
21 20 20 20 20 20 20 19 20 20 19 19 19 19 19 19 19 19 19 19 19 19 19 19 19 19 19 19 19 19 19 18 18 18 18 18 18 18 17 17 17 17 17
21 20 20 20 20 20 20 19 19 19 19 19 19 19 19 19 19 19 19 19 19 19 19 19 19 19 19 19 19 19 19 19 19 19 18 18 18 18 17 17 17 17 17
21 20 20 20 20 20 19 19 19 19 19 19 19 19 19 19 19 19 19 19 19 19 19 19 19 19 19 19 19 19 19 19 19 19 18 18 18 18 18 17 17 17 17
21 21 20 20 20 20 20 20 19 20 20 19 19 19 19 19 19 19 19 19 19 19 19 19 19 19 19 19 19 19 19 19 19 19 19 19 18 18 18 18 17 17 17
22 21 21 20 20 20 20 20 20 20 20 20 20 19 19 19 19 19 19 19 19 19 19 19 19 19 19 19 19 19 19 19 19 19 19 19 19 18 18 18 17 17 17
22 21 21 21 20 20 20 20 20 20 20 20 20 20 19 19 19 19 19 19 19 19 19 19 19 19 19 19 19 19 19 19 19 19 19 19 19 18 18 18 18 17 17
23 22 21 21 21 20 20 20 20 20 20 20 20 20 19 19 19 19 19 19 19 19 19 19 19 19 19 19 19 19 19 20 19 19 19 19 19 19 18 18 18 18 17
23 22 21 21 21 20 20 20 20 20 20 20 20 20 20 19 19 19 19 19 19 19 19 19 19 19 19 19 19 19 19 19 19 19 19 19 19 19 19 18 18 18 18
Wind_Speed
11 13 16 16 15 15 15 15 14 14 14 14 14 15 15 15 15 15 15 15 14 13 13 13 12 11 11 10 11 10 10 10 9 9 10 10 10 10 9 9 10 11 12
13 15 17 16 15 15 15 14 14 14 13 13 14 14 14 15 15 14 14 14 13 12 12 11 11 11 10 9 9 9 8 8 7 9 9 9 9 9 9 9 10 11 12
15 17 16 16 16 15 14 13 13 13 13 13 13 14 14 14 14 14 13 12 12 11 11 11 10 9 9 8 8 7 6 5 6 8 9 8 8 9 9 10 11 12 11
15 15 16 16 15 14 13 13 13 13 13 13 13 13 13 13 13 13 12 11 11 11 10 9 9 9 8 7 7 6 4 3 4 6 6 8 8 9 10 10 10 10 10
14 15 15 16 15 14 13 12 13 13 13 13 12 13 12 11 11 11 11 10 10 10 9 9 8 8 6 6 5 4 2 2 1 2 4 9 9 9 9 9 10 10 10
14 14 14 15 15 14 13 13 13 13 13 12 12 12 12 11 10 10 11 10 9 9 8 8 7 7 5 4 4 3 1 0 1 1 6 9 9 9 9 8 9 9 9
13 14 14 14 14 14 13 13 13 13 13 12 12 12 11 10 9 9 9 9 8 8 7 6 6 5 4 4 3 2 0 2 1 2 8 10 10 10 9 8 8 8 8
12 13 14 14 15 14 13 13 13 13 12 11 11 11 10 9 9 8 8 8 7 6 6 5 5 4 4 3 1 0 2 3 2 4 9 10 10 9 8 8 8 8 8
11 11 12 13 13 14 13 13 13 12 11 10 10 9 9 9 9 8 8 8 7 6 5 5 5 4 3 2 2 2 3 3 1 3 7 9 10 9 8 7 7 7 7
9 10 11 13 13 13 13 13 13 12 11 10 9 8 8 9 9 9 8 7 6 5 5 4 4 4 4 3 3 4 4 4 1 4 7 9 9 8 7 7 7 7 7
8 8 8 10 10 12 13 13 13 13 11 10 8 8 8 7 9 9 9 8 7 6 5 5 5 6 5 5 5 5 4 2 2 5 8 9 9 7 6 6 7 7 7
9 9 9 8 8 8 10 11 11 10 10 8 8 8 7 6 6 8 10 10 8 8 7 7 8 7 7 5 4 4 3 2 3 6 8 10 9 7 6 6 7 6 6
8 9 9 9 7 7 6 7 6 7 7 7 6 6 5 5 5 6 7 8 8 8 7 7 7 5 5 3 3 3 1 1 4 7 8 9 8 7 6 6 6 5 6
8 9 9 9 7 6 5 4 5 5 5 5 5 4 4 3 3 4 4 5 5 5 3 3 3 3 3 2 2 2 2 3 6 8 8 8 7 6 5 5 5 5 5
8 8 9 9 7 6 4 2 5 5 4 5 4 4 4 3 2 2 2 2 3 3 2 1 1 1 1 1 1 2 3 4 5 7 7 8 7 6 5 4 4 5 5
8 8 8 9 8 6 4 2 3 4 4 5 4 4 4 4 3 2 2 1 1 1 2 2 1 1 1 1 1 2 2 3 5 6 8 7 7 7 6 5 5 5 5
8 8 8 9 8 6 5 2 4 4 4 4 5 5 3 3 3 2 2 1 1 1 2 1 1 1 1 1 1 2 2 2 3 4 7 7 7 7 7 6 6 5 6
9 8 6 7 9 6 4 2 3 3 3 3 5 5 3 2 3 2 1 1 1 1 1 1 1 1 1 1 1 1 2 2 2 2 4 6 7 7 7 7 7 6 6
9 7 6 6 7 6 5 3 3 3 3 3 4 4 3 2 1 1 1 1 1 1 1 1 2 0 1 1 1 2 2 2 2 2 2 3 6 8 8 8 8 7 7
9 8 7 6 6 5 4 3 2 3 2 2 4 4 3 2 2 1 2 1 1 1 1 1 2 0 1 1 1 1 1 2 2 2 2 2 3 6 7 8 8 6 7
9 8 7 6 5 3 3 2 2 2 2 2 3 4 3 2 1 0 1 1 1 1 1 1 1 1 1 0 1 0 1 2 2 2 1 2 2 3 5 7 7 6 6
10 9 8 7 6 4 3 2 2 2 2 2 2 4 3 2 2 2 1 0 1 1 1 0 0 0 1 0 0 0 1 0 1 2 3 2 2 2 2 4 6 6 6
11 10 8 8 7 6 5 3 2 2 1 2 2 3 2 2 1 1 1 0 1 1 1 1 0 0 1 1 0 0 0 0 1 0 1 1 2 1 1 1 4 5 6
12 11 9 8 7 6 5 4 4 3 2 2 2 3 3 3 2 2 1 0 1 1 1 1 1 1 1 2 1 1 1 1 1 1 1 1 2 2 2 1 2 4 6
12 11 10 8 7 6 5 5 4 3 3 2 2 3 3 3 3 2 2 1 1 0 0 1 1 1 1 2 2 1 1 1 2 1 1 1 1 1 2 1 1 2 6
11 11 11 9 7 6 6 5 4 3 3 2 3 3 3 3 3 3 3 2 1 1 0 0 1 1 1 2 3 3 1 1 1 1 1 2 1 2 2 2 1 1 4
Wind_Direction
104 108 107 105 102 98 95 94 95 94 93 93 96 99 100 100 99 100 102 102 101 102 102 102 102 100 97 96 98 98 95 96 100 108 117 121 121 122 126 129 125 119 118
109 109 107 105 104 102 99 96 97 96 95 96 97 99 100 101 101 101 102 102 102 101 101 101 103 102 98 97 99 101 104 108 116 128 131 128 130 130 129 129 125 127 131
109 112 108 105 105 105 102 100 99 100 99 99 100 100 100 101 102 102 103 104 103 103 103 102 103 102 98 98 99 101 107 123 136 150 150 136 132 134 131 127 128 135 137
108 109 107 108 108 108 107 105 103 102 101 102 104 105 104 103 103 104 107 105 105 105 104 105 104 101 100 103 105 106 115 144 156 170 163 140 134 135 136 137 138 141 141
106 107 111 114 112 111 110 109 108 105 104 105 107 107 108 107 105 105 107 106 104 103 104 105 107 107 108 104 106 109 118 148 176 209 142 127 125 134 139 142 143 143 144
111 112 115 116 115 113 113 113 111 108 107 109 110 111 110 113 110 108 109 108 107 105 104 106 109 111 110 107 111 111 121 185 286 228 137 130 128 137 137 137 141 145 147
109 111 118 120 122 120 118 117 116 115 114 113 113 113 114 115 114 112 112 112 110 108 106 109 111 113 113 113 116 124 220 302 234 85 96 107 124 134 137 139 147 153 154
113 116 121 126 128 126 123 121 120 121 119 119 119 121 125 127 123 121 121 120 120 119 117 119 123 121 121 123 132 225 274 304 98 86 96 106 123 129 136 147 153 158 161
117 125 133 132 130 131 129 129 128 128 127 126 126 132 139 142 139 135 134 134 135 132 130 131 134 131 137 163 207 256 277 301 321 117 109 112 123 130 135 142 151 157 162
120 130 136 138 140 140 136 140 140 140 138 136 139 148 155 158 157 157 151 147 150 154 156 156 159 162 173 205 228 252 284 299 216 102 104 119 129 131 134 143 154 160 163
119 127 132 135 143 142 138 143 150 149 151 149 157 167 169 171 167 165 154 160 170 178 181 185 193 198 205 217 235 253 273 255 106 95 103 123 132 133 137 147 152 153 155
121 126 127 126 130 135 132 141 151 149 155 164 161 176 178 171 156 142 158 174 184 191 198 205 215 218 220 211 208 230 243 212 117 103 112 127 130 133 140 148 151 153 154
118 116 117 120 124 121 123 140 144 137 151 155 157 170 156 148 151 149 158 173 186 195 206 198 206 215 217 205 184 191 208 102 100 98 115 126 129 133 139 147 156 161 164
106 106 110 110 111 111 117 126 134 134 150 143 155 157 143 142 149 149 164 179 183 194 196 185 182 196 216 183 165 139 96 88 101 111 123 131 132 136 143 155 170 172 173
109 106 104 106 107 108 99 123 123 130 137 126 129 133 142 143 147 137 159 180 185 173 164 161 160 122 91 72 85 74 60 84 104 116 125 137 138 140 147 158 167 176 180
114 109 110 113 107 109 115 109 113 113 118 124 125 125 137 135 134 146 159 178 156 163 158 158 136 115 104 83 58 73 81 92 108 124 137 142 141 145 152 158 165 173 179
121 114 117 120 119 117 119 129 120 119 126 115 117 118 119 124 133 141 148 164 163 165 131 105 86 115 146 139 133 109 89 93 111 130 143 152 153 153 157 160 161 169 180
125 123 128 125 124 121 118 104 99 108 107 113 122 121 115 121 148 154 142 136 117 108 116 130 143 130 133 152 146 144 140 135 133 149 154 158 158 156 163 170 171 177 182
126 128 121 111 119 128 128 129 115 104 102 123 128 128 134 142 133 151 107 87 124 107 120 161 102 137 186 140 159 175 173 166 159 157 156 148 153 152 158 170 177 182 185
136 133 128 126 128 136 131 131 121 113 129 131 120 125 136 151 161 188 123 109 132 107 91 88 104 173 236 260 313 98 161 159 149 156 173 146 151 157 160 160 171 183 187
144 141 139 144 139 142 132 140 141 142 150 141 137 135 150 163 137 257 79 108 83 109 117 102 108 213 233 145 55 1 232 193 163 164 164 145 148 146 147 157 167 172 175
153 149 149 152 156 160 154 168 166 162 171 154 132 136 159 146 164 174 110 177 113 104 105 136 72 357 306 134 209 264 312 1 327 170 153 170 157 147 159 165 164 164 168
160 162 166 164 165 173 165 177 166 154 214 132 141 140 160 154 152 352 131 284 73 149 135 220 265 207 250 290 339 315 330 357 333 336 186 145 134 169 203 179 165 164 162
165 165 161 161 163 168 172 186 186 181 177 184 168 151 171 168 175 156 127 18 353 26 135 229 131 297 263 255 242 242 240 121 182 284 284 183 187 204 222 231 181 151 151
167 165 162 160 164 168 183 190 200 190 188 185 158 154 177 181 186 157 147 158 306 313 53 34 37 321 311 315 308 292 276 199 205 205 257 269 235 215 206 221 209 165 157
168 167 163 160 165 169 185 189 189 200 194 197 182 178 200 180 179 176 166 177 233 256 64 50 290 286 303 322 323 325 324 314 281 261 254 248 245 236 195 190 210 180 166
Height
1502 1502 1503 1503 1504 1505 1506 1507 1508 1509 1510 1511 1512 1514 1515 1517 1518 1519 1521 1522 1524 1525 1526 1528 1529 1530 1531 1532 1533 1534 1535 1535 1536 1537 1539 1540 1541 1542 1544 1545 1546 1547 1549
1503 1504 1504 1505 1506 1508 1509 1510 1511 1512 1513 1514 1515 1517 1518 1519 1520 1522 1523 1525 1526 1527 1529 1530 1531 1532 1533 1533 1534 1535 1536 1536 1536 1537 1539 1540 1541 1543 1544 1545 1546 1547 1549
1504 1505 1506 1507 1509 1510 1511 1512 1514 1514 1515 1517 1518 1519 1520 1522 1523 1524 1525 1527 1528 1529 1530 1531 1532 1534 1534 1535 1536 1536 1537 1537 1537 1537 1539 1540 1542 1543 1544 1545 1547 1548 1549
1506 1507 1508 1510 1511 1512 1514 1515 1516 1517 1518 1519 1520 1521 1523 1524 1525 1526 1528 1529 1530 1531 1532 1533 1534 1535 1536 1536 1537 1537 1538 1538 1538 1538 1539 1540 1541 1543 1544 1545 1546 1548 1549
1508 1509 1510 1511 1513 1514 1516 1517 1518 1519 1520 1521 1522 1523 1525 1526 1528 1529 1530 1531 1532 1533 1534 1535 1536 1536 1537 1537 1538 1538 1539 1539 1539 1538 1538 1540 1541 1543 1544 1545 1546 1547 1549
1510 1511 1512 1513 1515 1516 1517 1518 1519 1521 1522 1523 1524 1526 1527 1528 1530 1531 1532 1533 1534 1535 1536 1537 1537 1538 1538 1538 1539 1539 1540 1540 1539 1537 1536 1538 1541 1543 1544 1545 1546 1547 1549
1511 1512 1513 1515 1516 1517 1519 1520 1521 1523 1524 1525 1526 1527 1529 1530 1531 1533 1534 1535 1536 1537 1537 1538 1539 1539 1539 1540 1540 1540 1540 1541 1540 1539 1538 1539 1541 1543 1544 1545 1546 1547 1548
1512 1513 1514 1516 1518 1519 1521 1522 1523 1525 1526 1527 1528 1529 1531 1532 1533 1534 1536 1537 1538 1538 1539 1539 1540 1540 1540 1541 1541 1541 1542 1542 1542 1542 1542 1542 1543 1544 1544 1545 1546 1547 1548
1514 1515 1516 1517 1519 1521 1522 1524 1525 1526 1528 1529 1530 1531 1532 1533 1535 1536 1537 1538 1539 1540 1541 1541 1541 1542 1542 1542 1542 1543 1543 1543 1543 1543 1543 1543 1543 1544 1544 1545 1545 1546 1547
1515 1516 1518 1519 1521 1522 1524 1525 1527 1528 1529 1530 1532 1532 1533 1535 1536 1537 1538 1539 1540 1541 1542 1542 1543 1543 1543 1544 1544 1544 1544 1544 1544 1544 1544 1544 1544 1544 1544 1545 1545 1546 1547
1516 1518 1520 1522 1523 1525 1526 1527 1528 1530 1531 1532 1533 1534 1535 1536 1537 1538 1540 1541 1542 1542 1543 1544 1544 1544 1545 1545 1545 1545 1545 1545 1545 1545 1544 1544 1544 1544 1544 1544 1545 1546 1546
1517 1519 1521 1523 1525 1527 1528 1529 1530 1532 1533 1534 1535 1535 1536 1538 1539 1540 1541 1542 1543 1543 1544 1545 1545 1545 1546 1546 1547 1546 1546 1545 1545 1545 1545 1545 1545 1544 1544 1544 1545 1546 1546
1519 1521 1523 1524 1526 1528 1530 1531 1532 1534 1534 1535 1536 1536 1537 1538 1540 1541 1541 1543 1543 1544 1545 1546 1546 1546 1546 1547 1547 1547 1547 1546 1546 1545 1545 1545 1545 1545 1545 1544 1545 1545 1546
1521 1522 1524 1526 1527 1529 1531 1532 1534 1535 1536 1536 1536 1537 1538 1539 1540 1541 1542 1543 1544 1545 1546 1546 1546 1546 1547 1548 1548 1548 1548 1547 1546 1545 1546 1546 1546 1545 1545 1545 1545 1545 1546
1523 1525 1526 1527 1528 1530 1531 1533 1535 1536 1537 1537 1537 1537 1538 1539 1540 1541 1542 1543 1545 1546 1546 1546 1547 1547 1547 1548 1548 1548 1548 1548 1547 1546 1546 1546 1546 1545 1545 1545 1545 1545 1545
1525 1526 1528 1529 1529 1531 1532 1534 1535 1536 1537 1537 1538 1539 1540 1540 1541 1542 1543 1544 1545 1546 1547 1547 1547 1547 1548 1548 1548 1548 1548 1548 1547 1547 1546 1546 1546 1545 1545 1545 1544 1544 1544
1526 1528 1529 1530 1531 1532 1534 1535 1536 1537 1538 1539 1539 1540 1540 1541 1542 1543 1544 1545 1546 1547 1547 1547 1548 1547 1547 1548 1548 1548 1548 1548 1548 1548 1547 1546 1546 1545 1545 1544 1544 1544 1543
1527 1528 1530 1532 1532 1533 1534 1536 1537 1538 1539 1540 1540 1541 1541 1542 1543 1543 1544 1545 1546 1546 1547 1547 1547 1547 1547 1548 1548 1548 1548 1548 1548 1548 1548 1547 1546 1545 1545 1544 1544 1543 1543
1527 1529 1530 1532 1533 1534 1535 1536 1538 1539 1539 1540 1541 1541 1542 1542 1543 1544 1544 1545 1546 1546 1547 1547 1547 1547 1547 1548 1548 1548 1548 1548 1548 1548 1548 1548 1547 1546 1545 1544 1544 1543 1543
1528 1529 1531 1532 1533 1535 1536 1537 1538 1539 1540 1541 1542 1542 1542 1543 1543 1544 1545 1545 1546 1546 1547 1547 1547 1547 1547 1547 1548 1548 1548 1548 1548 1548 1548 1548 1547 1546 1545 1544 1544 1543 1543
1528 1529 1531 1532 1533 1535 1536 1537 1538 1539 1540 1542 1542 1542 1543 1543 1544 1544 1545 1545 1546 1546 1546 1547 1547 1547 1547 1548 1548 1548 1548 1548 1548 1547 1547 1547 1547 1547 1546 1544 1543 1543 1542
1527 1529 1530 1532 1533 1534 1536 1537 1538 1540 1541 1542 1543 1543 1543 1544 1544 1545 1545 1545 1546 1546 1546 1546 1547 1547 1547 1548 1548 1548 1548 1549 1548 1548 1547 1547 1547 1546 1546 1545 1544 1542 1542
1526 1527 1529 1531 1532 1534 1535 1537 1539 1540 1541 1542 1542 1543 1543 1544 1545 1545 1545 1545 1545 1546 1546 1546 1546 1546 1547 1548 1548 1548 1548 1548 1548 1548 1547 1547 1546 1545 1545 1544 1543 1542 1541
1524 1526 1528 1530 1531 1533 1535 1536 1538 1539 1540 1541 1542 1542 1543 1544 1544 1545 1545 1545 1545 1545 1546 1546 1546 1546 1547 1547 1548 1548 1548 1547 1548 1547 1547 1546 1545 1544 1544 1543 1542 1541 1540
1523 1525 1526 1528 1530 1532 1533 1535 1537 1538 1539 1540 1541 1542 1542 1543 1543 1544 1544 1544 1545 1545 1545 1545 1546 1546 1546 1547 1547 1547 1547 1547 1547 1546 1546 1545 1544 1543 1543 1542 1541 1540 1539
1521 1523 1525 1526 1528 1530 1532 1534 1535 1536 1538 1539 1540 1540 1541 1542 1542 1542 1543 1543 1544 1544 1544 1545 1545 1545 1545 1546 1546 1546 1546 1546 1546 1545 1545 1544 1543 1543 1542 1541 1539 1539 1538